Regional Weather Roundup
Issued by NWS Sioux Falls, SD

Home | Current Version | Previous Version | Graphics & Text | Print | Product List | Glossary Off
Versions: 1 2 3 4 5 6 7 8 9 10 11 12 13 14 15 16 17 18 19 20 21 22 23 24 25 26 27 28 29 30 31 32 33 34 35 36 37 38 39 40 41 42 43 44 45 46 47 48 49 50

000
ASUS43 KFSD 262310
RWRFSD

WEATHER ROUNDUP FOR SE SOUTH DAKOTA/SW MINNESOTA/NW IOWA
NATIONAL WEATHER SERVICE SIOUX FALLS SD
600 PM CDT MON JUN 26 2017

NOTE: "FAIR" INDICATES FEW OR NO CLOUDS BELOW 12,000 FEET WITH NO
SIGNIFICANT WEATHER AND OR OBSTRUCTIONS TO VISIBILITY.


SDZ038>040-050-052>070-270000-
SOUTHEAST SOUTH DAKOTA

CITY           SKY/WX    TMP DP  RH WIND       PRES   REMARKS
BROOKINGS      SUNNY     68  38  33 N6        30.16F
CHAMBERLAIN    SUNNY     76  35  22 NE7       30.14F
HURON          SUNNY     70  38  31 W5        30.14F
MADISON        FAIR      66  39  37 N8        30.16F
MITCHELL       SUNNY     74  35  24 N8        30.15F
SIOUX FALLS    MOSUNNY   71  46  40 NE5       30.15F
WINNER         FAIR      78  37  22 NE6       30.14F
YANKTON        SUNNY     72  41  32 VRB6      30.15F
$$

MNZ071-072-080-081-089-090-097-098-270000-
SOUTHWEST MINNESOTA

CITY           SKY/WX    TMP DP  RH WIND       PRES   REMARKS
FAIRMONT       SUNNY     69  41  36 N9        30.14S
JACKSON        SUNNY     68  36  30 N3        30.15S
LUVERNE        SUNNY     68  36  30 E5        30.15F
MARSHALL       SUNNY     69  40  34 NE6       30.15F
MONTEVIDEO     PTSUNNY   73  43  33 NE7       30.15S
PIPESTONE      SUNNY     70  36  28 N6        30.16S
REDWOOD FALLS  MOSUNNY   71  39  31 NW9       30.13F
TRACY          SUNNY     69  42  36 N5        30.15F
WINDOM         SUNNY     70  37  30 N6        30.15S
WORTHINGTON    SUNNY     68  40  35 N7        30.16F
$$

IAZ001>003-012>014-020>022-031-032-NEZ013-014-SDZ071-270000-
NORTHWEST IOWA

CITY           SKY/WX    TMP DP  RH WIND       PRES   REMARKS
CHEROKEE       SUNNY     71  41  34 N8        30.14S
DENISON        MOSUNNY   72  45  37 E8        30.14F
ESTHERVILLE    SUNNY     68  41  37 N8G17     30.14F
LE MARS        SUNNY     72  39  30 N9        30.15S
ORANGE CITY    SUNNY     72  41  33 NE3       30.15S
SHELDON        SUNNY     70  39  32 CALM      30.13F
SIOUX CITY     SUNNY     74  42  31 NE6       30.13F
SPENCER        SUNNY     71  39  31 N9        30.15S
STORM LAKE     SUNNY     70  37  30 CALM      30.14F
$$

ABBREVIATIONS USED IN REMARKS
   TC - TEMPERATURE IN CELSIUS
  WCI - WIND CHILL INDEX
   HX - HEAT INDEX
  VSB - VISIBILITY





USA.gov is the U.S. government's official web portal to all federal, state and local government web resources and services.